Starlink 35151

operational
NORAD ID: 65624 Int'l Des: 2025-210 Owner: SPXS Country: US Constellation: starlink
NOTLE

Über Starlink 35151

Beschreibung wird geladen...

Live-Position

3D-Globus wird geladen...

Nächste Überflüge

Höhenverlauf

Altitude vs Time

uPlot chart will show altitude changes over time

Zweizeiliger Elementsatz

1 65624U 25210C 25340.84647921 .00035522 00000-0 12051-2 0 9996
2 65624 53.1604 18.5221 0002685 89.1520 270.9788 15.30216322 13436
Epoch: 6. Dez. 2025 • Age: 11 hours

Aktueller Status

Höhe 481.6 km
Geschwindigkeit 7.62 km/s
Subsatellitenpunkt -20.58°S, 176.24°E
Startdatum 18. Sept. 2025
Alter 0.2 years
Typ internet

Technische Details

Klassifizierung Payload
Masse 575.00 kg
Trockenmasse 530.00 kg
Gesamtmasse 575.00 kg
Länge 0.30 m
Durchmesser 4.10 m
Spannweite 29.00 m
Form Box + pan
Hersteller SPXS
Bus-Typ Starlink V2MO
Phasenstatus In Orbit
Besitzer/Staat SPXS/US

Große Konstellationen

Loading constellations...